Regional Weather Roundup
Issued by NWS

Home | Current Version | Previous Version | Text Only | Print | Product List | Glossary Off
Versions: 1 2 3 4 5 6 7 8 9 10 11 12 13 14 15 16 17 18 19 20 21 22 23 24 25 26 27 28 29 30 31 32 33 34 35 36 37 38 39 40 41 42 43 44 45 46 47 48 49 50

000
ASUS45 KABQ 062310
RWRNM
NEW MEXICO REGIONAL WEATHER ROUNDUP
NATIONAL WEATHER SERVICE ALBUQUERQUE NM
500 PM MDT MON JUL 06 2015

NOTE: "FAIR" MEANS FEW OR NO CLOUDS BELOW 12,000 FEET AGL WITH NO
       SIGNIFICANT WEATHER OR OBSTRUCTIONS TO VISION.

      THIS PRODUCT IS RELEASED AS TWO VERSIONS.  ONE VERSION NEAR
      THE TOP OF THE HOUR CONTAINING PRELIMINARY DATA FROM ALBUQUERQUE
      AND OTHER STATIONS.  A FINAL VERSION WITH ADDITIONAL DATA IS
      ISSUED ABOUT 10 MINUTES AFTER THE HOUR.

NMZ501-503-504-510>518-070000-
NORTHWEST PLATEAU/NORTHCENTRAL MOUNTAINS

CITY           SKY/WX    TMP DP  RH WIND       PRES   REMARKS
FARMINGTON     CLOUDY    82  53  36 N18       30.08S
LOS ALAMOS     CLOUDY    65  56  74 NE6       30.27F
SANTA FE       LGT RAIN  70  54  56 NE10      30.20F
TAOS           CLOUDY    70  48  46 SE16      30.25F
ANGEL FIRE     DRIZZLE   58  53  83 N7        30.37F

$$
NMZ402-403-502-505>509-070000-
WESTCENTRAL MOUNTAINS/SOUTHWEST MOUNTAINS

CITY           SKY/WX    TMP DP  RH WIND       PRES   REMARKS
GALLUP         MOSUNNY   79  50  36 N9        30.18F
GRANTS         PTSUNNY   77  51  39 NW13      30.21S
SILVER CITY      N/A     88  52  29 NW25G31   30.10F

$$
NMZ407-409-411-412-070000-
SOUTHERN DESERTS

CITY           SKY/WX    TMP DP  RH WIND       PRES   REMARKS
LORDSBURG      FAIR      91  50  24 W16G23    30.02F
DEMING         MOSUNNY   92  52  25 W14G26    29.99F
LAS CRUCES     MOSUNNY   94  48  21 NW5       29.99F
HOLLOMAN AFB     N/A     94  52  23 NW1       29.94F
ALAMOGORDO     SUNNY     93  50  22 SE3       29.96F
T OR C         SUNNY     92  49  22 VRB3      30.02F

$$
NMZ519>523-070000-
CENTRAL VALLEYS/CENTRAL HIGHLANDS

CITY           SKY/WX    TMP DP  RH WIND       PRES   REMARKS
ALBUQUERQUE    PTSUNNY   79  56  45 E28G40    30.06F
DOUBLE EAGLE   LGT RAIN  81  55  41 N17       30.12S
MORIARTY ARPT  TSTM      60  55  82 E15G35    30.24R VSB 1/2
CLINES CORNERS CLOUDY    67  57  70 NE18      30.23S
BELEN          CLOUDY    85  55  35 E14       30.05F
SOCORRO        FAIR      90  47  23 NW10G25   30.02F

$$
NMZ524>526-539-540-070000-
SOUTHCENTRAL MOUNTAINS

CITY           SKY/WX    TMP DP  RH WIND       PRES   REMARKS
RUIDOSO        MOSUNNY   72  57  60 CALM      30.20F

$$
NMZ527>531-070000-
NORTHEAST HIGHLANDS/NORTHEAST PLAINS

CITY           SKY/WX    TMP DP  RH WIND       PRES   REMARKS
LAS VEGAS      LGT RAIN  60  58  92 N13       30.28F
RATON          LGT RAIN  63  58  83 N3        30.25S
CLAYTON        CLOUDY    65  59  81 N23       30.17F

$$
NMZ532>537-070000-
EASTCENTRAL PLAINS

CITY           SKY/WX    TMP DP  RH WIND       PRES   REMARKS
TUCUMCARI      CLOUDY    79  60  52 NE26G33   30.03R
CANNON AFB     SUNNY     76  65  69 NE13      30.01S
CLOVIS AIRPORT CLOUDY    73  66  78 NE13        N/A

$$
NMZ028-029-538-070000-
SOUTHEAST PLAINS

CITY           SKY/WX    TMP DP  RH WIND       PRES   REMARKS
ROSWELL        PTSUNNY   95  57  27 W7        29.90F
ARTESIA        PTSUNNY   93  59  31 W5        29.91F
CARLSBAD       MOSUNNY   98  59  27 E12       29.86F HX  98
HOBBS          PTSUNNY   99  54  22 S12G18    29.91F HX  96


$$


USA.gov is the U.S. government's official web portal to all federal, state and local government web resources and services.